Погода в Воскресенском

Россия / Вологодская область     59°25′54″N   37°55′25″E
темп.,
°C
ветер,
м/с
пор.,
м/с
влажн.,
%
обл.,
%
осадки,
мм/ч
давл.,
гПа
погр.,
м
14 мая, пт
пт1400:00+13зюз2698100 6.6 1013339
03:00+11ю3898100 6.6 1015266
06:00+11ю399473 0.0 1015474
09:00+13ююз47761 0.0 1016865
12:00+17ю575419 0.0 10171683
15:00+18ю4751100 0.0 10161744
18:00+18ююв366368 0.0 1014903
21:00+12юв22855 0.0 101418
15 мая, сб
сб1500:00+11вюв2294100 0.0 101434
03:00+11юв22978 0.0 101327
06:00+12в2595100 0.0 1012174
09:00+17вюв3677100 0.0 1011521
12:00+20юв466991 0.0 10091161
15:00+21юв4768100 0.9 10081054
18:00+18юв3883100 0.6 1005372
21:00+14ю2697100 5.4 1005146
16 мая, вс
вс1600:00+13ююз3129440 1.9 1005300
03:00+12ю310975 1.9 1006277
06:00+12ю4109750 0.0 1006376
09:00+13ююз4991100 0.0 1007715
12:00+16ююз487890 0.0 1009941
15:00+17юз498290 1.4 10091092
18:00+17з27835 1.4 1009753
21:00+13ююз11925 1.9 101112
17 мая, пн
пн1700:00+12юз26954 0.0 101299
03:00+10зюз23945 0.0 101453
06:00+12юз13915 0.0 101489
09:00+17ююз23720 0.0 1015436
12:00+21ю335599 0.0 10151268
15:00+21ю3453100 0.0 10151437
18:00+20ююв2667100 0.0 1014798
21:00+15вюв378871 0.0 1013137
18 мая, вт
вт1800:00+14вюв3129334 0.1 1012271
03:00+14вюв4129596 0.8 1010304
06:00+15вюв4119499 0.1 1009302
09:00+20юв4127676 0.1 1008572
12:00+25юв51253100 0.0 10071272
15:00+25ююв61353100 0.0 10061576
18:00+23ююв51357100 0.0 10051326
21:00+20ююв51466100 0.0 1005829